Location: Cueva de Ratón
(10.1013°N, 67.6606°W)
Time: 13:12:54
(UTC+00:00)

TRACE - Pass Details

Date: 02 December 2023
Orbit: 467 x 489 km, 97.5° (Epoch: 26 February)

Event Time Altitude Azimuth Distance (km) Brightness Sun altitude
Rises 22:27:37 0° 17° (NNE) 2,491 7.8 -5.5°
Reaches altitude 10° 22:29:40 10° 21° (NNE) 1,618 6.8 -6.0°
Maximum altitude 22:33:05 58° 101° (E) 551 4.6 -6.7°
Drops below altitude 10° 22:36:32 10° 181° (S) 1,632 7.5 -7.5°
Sets 22:38:37 0° 185° (S) 2,515 8.6 -8.0°
